COSMOS 2251 DEB, 33899

Orbit data source: Space-Track

COSMOS 2251 DEB, 33899 is space debris in LEO originally from a launch on Wed, 16 Jun 1993 UTC launched from the Plesetsk Missile And Space Complex (PKMTR). The debris from Iridium 33, an American commercial communications satellite, has been tracked extensively since its accidental collision with the defunct Russian satellite Cosmos 2251 in 2009. This event, occurring at high speed in low Earth orbit (LEO), generated thousands of pieces of space debris, significantly increasing the risk of further collisions. The Iridium 33 debris cloud has impacted space traffic management and orbital debris mitigation strategies, making it a subject of ongoing study in space situational awareness.

Loading next visibility...
Identifier
33899, 1993-036DC
Orbit
LEO
Country
Flag of CISCIS
Related business
Manufacturer
Unknown
Mission
Spacecraft
Bus & Motor
Unknown
Mass
Unknown
Launch date (UTC)
1993-06-16 (33 years ago)
Launch vehicle
Unknown
Launch site
Plesetsk Missile And Space Complex (PKMTR)
Object type
Payload
Rocket body
Debris
Shape & HBR
Unknown shape, 0.1 m
Radar Cross Section
Medium (>0.1 m² and <1 m²)

Expand to show TLE details & history
Last TLE update: 2 days ago

TLE from 2 days ago
0 COSMOS 2251 DEB
1 33899U 93036DC  26174.69409003  .00002500  00000-0  48646-3 0  9992
2 33899  74.0531  76.7045 0055973  89.5534 297.7691 14.62637508916599
Epoch: 2026-06-23T16:39Z
TLE epoch observation values (Epoch: 2026-06-23T16:39:29.378Z)
Latitude
25.68628°
Longitude
-77.17341°
Altitude
669.254 km
Speed
7.535 km/s
True Right ascension
05h 38m 14s
True Declination
25° 33' 02"
Sunlit
Object was in daylight at epoch
Visualization orbit readout
Latitude
Unknown
Longitude
Unknown
Altitude
Unknown
Speed
Unknown
Apparent Right ascension
Unknown
Apparent Declination
Unknown
Sunlit
N/A
Visualization observer readout
Local Sidereal Time
19:24:17
Azimuth
Unknown
Elevation
Unknown
Doppler factor
Unknown
Orbital elements
Apogee altitude
721.783 km
Perigee altitude
642.744 km
Semi-major axis
7,060.401 km
Eccentricity
0.0056
Inclination
74.0531°
RAAN
76.7045°
Arg. of periapsis
89.5534°
True anomaly
297.19972°
Mean anomaly
297.7691°
Eccentric anomaly
297.48459°
Mean motion
3.65847 °/min
Orbital period
98.4 mins
BSTAR
0.00048646

Documentation

Showing up to 5 results
|